< < Back
Terminal Aerodrome Forecast


Current Version              Previous Versions:   1  2  3  4  5  6  7  8  9  

Terminal Aerodrome Forecast

030
FTUS42 KFFC 242300
TAFPDK
TAF
KPDK 242332Z 2500/2524 16005KT P6SM SCT070 SCT250
     FM250800 20006KT P6SM BKN050
     FM251200 23009KT P6SM SCT025 BKN050
     FM251500 24010G18KT P6SM BKN025
     FM251800 27012G20KT P6SM SCT040=

Latest METAR

849
SAUS70 KWBC 250300 RRN
MTRPDK
METAR KPDK 250253Z 00000KT 10SM CLR 18/10 A2993 RMK AO2 SLP126 T01780100
53006


USA.gov is the U.S. government's official web portal to all federal, state and local government web resources and services.